SCP
0 0 0 0 0 0 0 0 0 0 0 -0 -0 -0 -0 0 -0 -0 0 0 0 0 0 0 0 0 0 0 0 0 0 0 0 0 0 0 0 0 0 0 0 0 0 0 0 -0 0
0 0 0 0 0 0 0 0 0 0 0 0 -0 -0 -0 -0 -0 -0 -0 0 0 0 0 0 0 0 0 0 0 0 0 0 0 0 0 0 0 0 0 0 0 0 0 0 0 -0 0
0 0 0 0 0 0 0 0 0 0 0 0 0 0 -0 -0 -0 -0 -0 -0 -0 0 0 0 0 0 0 0 0 0 0 0 0 0 0 0 0 0 0 0 0 0 0 0 0 -0 0
0 0 0 0 0 0 0 0 0 0 0 0 -0 0 -0 -0 -0 -0 -0 -0 -0 -0 -0 0 0 0 0 0 0 0 0 0 0 0 0 0 0 0 0 0 0 0 0 0 0 -0 0
0 0 0 0 0 0 0 0 0 0 0 0 -0 -0 -0 -0 0 0 -0 -0 -0 -0 -0 -0 0 0 0 0 0 0 0 0 0 0 0 0 0 0 0 0 0 0 0 0 0 -0 0
0 0 0 0 0 0 0 0 0 0 0 0 0 0 -0 -0 0 0 0 -0 -0 -0 -0 -0 0 0 0 0 0 0 0 0 0 0 0 0 0 0 0 0 0 0 0 0 0 0 0
0 -0 -0 0 0 0 0 0 0 0 -0 -0 0 -0 -0 -0 0 -0 0 0 0 0 0 0 0 0 0 0 0 0 0 0 0 0 0 0 0 0 0 0 0 0 0 0 0 0 0
0 -0 -0 -0 0 0 0 0 0 0 -0 -0 -0 0 0 -0 -0 -0 0 0 0 -0 0 0 0 0 0 0 0 0 0 0 0 0 0 0 0 0 0 0 0 0 0 0 0 0 0
0 0 -0 -0 0 0 0 0 0 0 0 -0 -0 -0 -0 -0 -0 0 0 0 0 0 0 0 0 0 0 0 0 0 0 0 0 0 0 0 0 0 0 0 0 0 0 0 0 0 -0
0 0 0 -0 -0 0 0 -0 -0 0 0 0 -0 -0 -0 -0 0 0 0 -0 0 0 0 0 0 0 0 0 0 0 0 0 0 0 0 0 0 0 0 0 0 0 0 0 0 0 0
0 0 0 -0 -0 -0 0 -0 -0 0 0 0 -0 -0 -0 0 0 0 0 0 -0 0 0 0 0 0 0 0 0 0 0 0 0 0 0 0 0 0 0 0 0 0 0 0 0 0 0
0 0 0 0 0 -0 -0 -0 -0 0 0 0 0 -0 -0 0 0 -0 0 -0 -0 -0 0 0 0 0 0 0 0 0 0 0 0 0 0 0 0 0 0 0 0 0 0 0 0 0 0
0 0 0 0 0 -0 -0 -0 0 0 -0 -0 0 -0 0 0 0 0 0 0 -0 -0 0 0 0 0 0 0 0 0 0 0 0 0 0 0 0 0 0 0 0 0 0 0 0 0 0
0 0 0 0 0 -0 -0 0 0 0 -0 -0 -0 -0 0 0 0 0 0 -0 -0 0 0 0 0 0 0 0 0 0 0 0 0 0 0 0 0 0 0 0 0 0 0 0 0 0 0
0 0 0 0 -0 -0 -0 0 0 -0 -0 -0 -0 -0 0 0 0 0 -0 -0 -0 0 0 0 0 0 0 0 0 0 0 0 0 0 0 0 0 0 0 0 0 0 0 0 0 0 0
0 0 -0 -0 -0 -0 0 0 -0 -0 -0 -0 -0 -0 0 0 0 -0 -0 0 0 0 0 0 0 0 0 0 0 0 0 0 0 0 0 0 0 0 0 0 0 0 0 0 0 0 0
0 0 -0 -0 -0 -0 0 0 -0 -0 -0 -0 -0 -0 -0 0 0 0 0 0 0 -0 0 0 0 0 0 0 0 0 0 0 0 0 0 0 0 0 0 0 0 0 0 0 0 0 0
0 0 0 -0 -0 -0 0 -0 -0 -0 -0 -0 -0 -0 -0 -0 0 0 0 -0 -0 -0 0 0 0 0 0 0 0 0 0 0 0 0 0 0 0 0 0 0 0 0 0 0 0 0 0
0 0 0 0 -0 -0 0 -0 -0 -0 -0 -0 -0 -0 -0 -0 0 0 -0 0 0 -0 -0 0 0 0 0 0 0 0 0 0 0 0 0 0 0 0 0 0 0 0 0 0 0 0 0
0 0 0 -0 -0 -0 0 -0 -0 -0 -0 0 0 0 -0 -0 0 0 0 0 0 0 -0 0 0 0 0 0 0 0 0 0 0 0 0 0 0 0 0 0 0 0 0 0 0 0 0
0 0 0 0 -0 -0 0 -0 -0 -0 0 0 0 0 0 0 0 0 0 0 0 0 0 -0 -0 0 0 0 0 0 0 0 0 0 0 0 0 0 0 0 0 0 0 0 0 0 0
0 0 0 -0 -0 0 0 -0 -0 -0 0 0 0 0 0 0 0 0 0 0 0 0 0 -0 -0 -0 0 0 0 0 0 0 0 0 0 0 0 0 0 0 0 0 0 0 0 0 0
0 0 -0 -0 0 0 -0 -0 -0 -0 -0 0 0 -0 0 0 0 0 0 0 0 0 0 0 0 -0 0 0 0 0 0 0 0 0 0 0 0 0 0 0 0 0 0 0 0 0 0
0 0 0 0 0 0 -0 -0 -0 -0 -0 0 0 0 0 0 0 0 0 0 0 0 0 0 0 0 0 0 0 0 0 0 0 0 0 0 0 0 0 0 0 0 0 0 0 0 0
0 0 -0 -0 0 0 -0 -0 -0 -0 -0 0 0 0 0 0 0 0 0 0 0 0 0 0 0 -0 0 -0 0 0 0 0 0 0 0 0 0 0 0 0 0 0 0 0 0 0 0
0 0 -0 -0 0 -0 -0 -0 -0 -0 -0 0 0 0 0 -0 -0 0 0 0 0 0 0 -0 -0 -0 -0 0 0 0 0 0 0 0 0 0 0 0 0 0 0 0 0 0 0 0 0
0 0 -0 -0 -0 -0 -0 -0 -0 -0 0 0 0 0 0 0 -0 0 0 0 0 0 0 -0 -0 -0 -0 -0 -0 0 0 0 0 0 0 0 0 0 0 0 0 0 0 0 0 0 0
0 -0 -0 -0 -0 0 0 -0 -0 -0 -0 0 0 0 0 0 -0 0 0 0 0 0 0 0 0 0 0 0 0 0 0 0 0 0 0 0 0 0 0 0 0 0 0 0 0 0 0
0 0 -0 -0 -0 0 -0 -0 -0 -0 -0 0 0 0 0 0 -0 0 0 -0 0 0 0 0 0 0 0 0 0 0 0 0 0 0 0 0 0 0 0 0 0 0 0 0 0 0 0
Wind_Speed_500mb
29 33 36 37 36 34 34 33 34 34 34 33 33 33 30 28 25 25 24 24 22 20 19 18 18 15 14 10 18 12 4 19 51 53 44 46 42 18 9 10 15 5 13 18 12 13 35
33 36 38 38 35 35 35 34 34 35 35 36 35 33 31 27 26 25 24 22 21 20 18 16 16 16 15 9 9 14 11 15 43 51 46 48 39 36 4 9 14 21 26 20 17 21 40
35 38 39 37 37 39 40 39 38 36 37 38 38 35 31 28 25 24 22 21 19 17 16 14 14 18 23 27 7 18 13 11 24 38 49 51 21 24 2 9 9 30 15 20 19 31 13
35 36 38 37 38 40 42 42 40 39 39 40 43 39 32 27 23 18 15 14 14 10 7 9 12 17 18 3 26 24 20 21 28 31 31 38 39 18 9 12 8 4 12 11 14 33 26
36 36 36 36 37 39 42 44 43 39 39 41 43 38 30 28 22 19 19 17 15 10 4 5 7 11 16 17 34 30 19 16 22 28 24 19 26 13 7 3 9 10 8 9 15 29 9
36 36 35 34 35 38 41 44 45 42 39 39 41 36 28 26 22 19 20 14 12 10 9 8 8 9 5 7 19 29 26 20 17 26 12 13 16 6 5 7 8 6 7 3 7 19 18
36 36 35 34 33 36 39 42 44 43 38 36 35 34 25 24 20 21 23 16 15 5 16 20 17 27 38 14 13 26 30 32 14 19 10 13 7 12 16 10 10 9 3 18 11 16 12
38 35 36 33 32 33 36 40 42 41 38 34 31 28 24 21 23 25 24 22 18 19 23 40 37 42 38 36 11 22 26 23 13 9 9 9 11 16 11 13 9 6 8 12 17 15 14
42 37 35 36 34 32 34 38 40 39 37 34 29 26 23 22 20 15 26 23 26 47 6 19 11 14 5 9 11 21 33 33 8 7 8 11 8 11 8 5 10 5 9 13 16 15 10
47 39 36 35 36 34 33 36 39 38 36 36 31 28 24 26 11 17 12 30 43 28 8 12 6 3 12 10 5 14 27 31 4 16 12 8 12 7 6 7 11 3 15 16 29 19 10
51 44 38 35 36 35 33 34 37 39 37 35 33 29 25 21 23 22 25 36 44 3 9 26 9 9 6 23 13 21 35 28 13 8 13 11 9 11 11 16 13 18 12 27 25 7 9
50 44 39 36 35 35 34 34 36 38 38 37 34 29 21 16 15 14 29 31 9 10 8 14 11 12 10 2 8 24 23 22 9 5 3 13 7 10 16 9 20 4 17 22 10 6 3
48 46 41 36 34 34 34 34 37 41 39 33 37 22 15 9 8 19 27 12 9 9 9 13 10 9 5 4 3 8 9 8 9 7 8 12 10 11 12 7 1 8 14 4 6 1 11
45 45 40 35 33 32 34 35 39 41 37 31 21 12 7 6 11 19 26 10 13 3 3 11 11 10 6 8 6 7 12 7 1 9 4 7 6 13 7 19 15 15 18 11 11 10 6
42 43 38 33 32 31 33 34 40 40 40 27 14 10 14 14 17 16 9 11 10 6 6 10 12 13 13 12 1 8 13 8 9 16 13 6 9 8 9 10 20 8 8 13 13 5 8
37 39 35 30 31 30 32 34 42 39 35 25 16 11 6 9 12 10 11 4 7 9 9 6 7 7 9 11 5 8 8 7 7 2 3 6 4 3 10 9 8 13 12 7 6 9 6
33 36 32 28 29 29 31 34 42 39 31 28 15 9 9 8 7 4 7 10 8 14 15 2 2 8 2 6 7 4 4 3 6 9 12 5 6 11 3 6 13 5 5 12 11 7 10
32 36 29 27 29 29 29 32 41 39 29 32 7 4 7 14 5 4 3 8 4 9 15 9 6 4 4 7 12 8 5 3 14 1 4 3 8 3 7 8 9 3 10 9 10 6 7
35 34 29 25 27 26 26 29 38 39 33 36 7 4 13 20 4 3 5 7 3 14 11 9 9 5 7 6 7 8 7 8 21 8 4 4 7 4 11 12 13 14 9 8 11 7 8
33 31 27 24 25 26 24 28 34 32 31 17 4 5 5 16 9 9 8 8 8 26 16 8 8 7 10 14 13 3 10 11 14 17 6 7 6 7 9 10 4 5 8 6 9 7 11
33 29 26 24 23 24 22 25 32 28 21 12 9 2 2 2 7 9 8 3 8 10 10 29 15 13 3 9 13 12 8 14 14 33 9 8 7 2 4 6 6 1 5 7 7 8 9
31 27 24 21 19 21 20 21 27 31 15 18 8 9 10 8 5 8 9 6 8 7 10 9 8 13 13 9 3 6 8 9 5 14 9 8 3 1 12 12 13 9 17 17 10 12 13
29 25 20 18 17 19 19 18 22 27 19 11 10 8 4 12 7 8 4 2 4 11 11 9 4 5 10 10 20 14 8 8 6 7 9 7 5 6 1 9 9 13 17 12 8 4 42
26 22 17 16 16 18 17 14 16 23 26 25 16 6 5 4 4 4 3 6 8 5 8 4 9 3 9 19 10 5 10 11 15 17 8 6 7 5 2 8 8 9 15 19 22 7 11
25 21 14 12 13 16 15 11 9 10 14 16 22 7 5 4 1 2 8 6 8 5 5 5 7 3 16 8 8 10 10 10 13 14 16 11 7 7 6 4 2 12 15 9 7 13 15
22 18 13 11 11 13 14 11 7 5 7 6 16 11 8 15 6 4 6 3 3 1 10 5 7 5 10 9 7 5 3 2 6 13 10 11 13 8 4 5 8 12 16 10 16 7 6
21 17 12 10 8 9 12 11 8 4 8 11 13 12 10 10 12 10 7 5 4 4 3 7 8 7 12 6 7 4 3 3 2 4 8 8 8 6 2 3 6 6 19 24 10 13 48
20 16 13 11 9 7 9 9 8 4 6 9 5 12 13 15 27 20 17 13 8 7 6 2 5 9 8 8 5 4 4 3 5 3 3 5 6 1 3 6 5 17 12 11 6 5 60
19 16 14 12 9 7 8 8 7 4 7 14 4 5 3 6 10 19 16 13 7 10 5 4 5 4 5 8 1 5 3 4 4 3 6 3 8 8 9 9 13 12 3 4 11 26 54
Wind_Direction_500mb
15 8 6 6 7 8 6 7 5 1 357 350 341 331 325 319 314 310 307 305 299 290 285 276 274 267 262 250 245 183 351 172 177 176 181 177 180 184 182 195 159 214 147 173 141 125 143
15 10 10 10 11 12 9 7 4 3 360 358 351 343 333 323 315 312 311 307 300 292 283 271 261 254 247 252 239 202 138 155 184 187 184 183 193 186 289 239 172 205 172 164 160 163 141
13 12 12 11 12 11 6 4 2 360 360 0 358 350 342 335 329 324 319 311 303 293 281 264 246 241 249 248 212 159 157 184 198 196 191 190 163 189 184 290 264 245 162 166 169 165 126
12 12 12 12 12 9 5 3 359 356 359 1 1 356 351 353 350 347 343 342 335 320 278 243 226 241 250 187 197 183 173 194 200 205 202 207 195 229 252 299 318 211 132 154 176 173 181
10 11 10 11 11 10 7 4 1 358 357 1 1 2 6 7 18 42 40 31 32 30 99 185 208 244 263 224 208 184 208 193 191 199 202 118 193 228 241 127 14 18 162 189 167 195 140
7 6 5 6 6 7 8 6 3 0 358 359 2 6 11 21 32 37 23 11 6 17 117 142 239 298 264 339 200 211 210 192 176 174 171 191 198 151 52 90 187 68 43 133 149 172 102
0 359 359 358 358 3 6 4 4 2 357 356 4 7 5 10 10 354 340 341 344 333 273 246 268 265 296 290 207 199 205 190 167 150 149 184 131 200 193 175 131 102 2 79 69 83 86
356 351 353 349 350 355 358 0 2 3 359 352 355 4 1 352 345 337 338 346 24 341 299 296 271 263 270 274 298 195 195 172 173 161 123 45 213 220 172 167 126 124 101 89 79 128 73
352 348 344 345 345 346 350 355 357 0 359 353 345 344 346 341 323 325 332 15 347 340 269 303 264 244 276 168 198 236 186 192 143 138 136 157 245 171 147 136 128 138 160 176 141 146 143
351 345 340 340 343 341 342 347 351 353 355 352 344 333 336 335 321 308 350 344 338 329 54 296 298 290 194 224 298 209 190 188 159 184 151 223 233 147 164 230 137 204 192 155 151 165 176
352 348 340 338 339 340 338 338 344 346 347 345 344 329 328 333 317 313 324 330 331 109 51 332 302 353 248 168 161 207 195 181 157 156 110 245 181 189 190 214 152 223 154 180 160 96 100
349 343 339 339 336 337 335 333 338 341 339 337 338 325 321 332 319 323 323 320 332 38 25 335 341 352 6 206 157 176 177 183 130 127 104 222 242 173 209 217 181 137 83 60 66 107 323
344 344 341 339 336 334 333 332 335 339 336 337 327 325 317 348 307 323 332 332 41 85 328 323 304 346 50 284 152 127 156 105 141 98 345 330 261 234 174 252 248 129 96 54 56 45 221
340 343 340 337 337 334 334 333 337 342 336 338 318 298 253 236 280 299 334 52 64 248 282 285 284 301 216 157 223 169 118 151 259 108 118 185 304 167 182 185 190 186 154 150 157 187 235
336 342 342 339 337 337 336 336 340 345 340 348 340 286 259 227 256 295 337 56 197 237 281 306 324 34 337 15 28 157 154 183 207 171 171 172 269 293 186 161 145 193 146 184 105 17 101
335 343 341 336 337 339 339 340 343 348 345 346 339 311 274 272 240 304 64 218 228 222 296 6 50 57 348 316 57 79 33 314 321 235 175 228 257 271 277 133 46 155 160 76 14 139 148
335 340 340 334 340 343 344 346 346 351 354 355 336 323 322 316 206 43 119 226 273 286 241 195 23 4 352 334 17 79 358 284 313 330 96 112 145 288 359 47 170 48 71 60 110 106 145
341 342 341 339 348 347 348 348 348 350 5 360 5 26 312 141 27 57 113 208 320 297 49 38 73 31 56 7 13 70 78 186 346 85 61 334 130 201 230 285 265 54 148 127 122 197 78
341 346 347 350 350 346 349 352 353 350 355 351 355 12 198 200 9 294 284 287 330 6 12 23 23 331 53 51 81 28 354 29 18 60 62 19 16 43 3 360 6 50 348 97 106 88 169
346 347 350 352 352 347 350 357 357 353 353 5 64 57 80 224 299 147 114 355 11 19 45 15 6 344 49 17 20 330 25 357 2 20 76 85 69 120 144 220 225 14 328 119 106 110 151
348 347 352 351 354 348 351 0 5 5 17 23 35 98 56 285 344 74 86 69 57 16 33 28 18 18 46 43 6 11 21 0 355 11 28 87 99 55 45 339 154 115 325 183 143 156 143
348 347 352 355 356 351 349 1 14 17 21 32 38 23 13 53 28 70 13 352 68 34 37 351 67 20 46 76 55 348 348 48 13 321 30 355 132 111 354 16 19 35 21 37 46 114 66
345 344 348 357 357 355 353 356 13 31 28 34 39 29 8 10 13 64 280 208 16 118 51 51 284 77 42 358 327 296 273 305 237 336 16 45 80 54 147 319 37 353 356 342 43 291 143
336 337 340 356 351 354 354 351 4 30 42 38 30 43 70 343 93 180 154 99 68 65 127 49 10 34 339 332 324 351 0 11 54 31 30 84 79 30 208 24 64 266 18 75 79 31 130
328 332 335 339 340 353 355 350 349 17 45 38 30 55 67 80 318 317 106 90 93 62 45 48 17 359 336 5 48 34 349 13 3 14 12 44 106 71 108 101 219 350 351 346 24 33 134
324 325 320 321 338 350 350 351 348 10 37 75 35 57 89 116 325 259 96 37 136 22 354 359 43 17 2 68 58 94 151 268 326 342 34 41 62 102 65 104 195 236 269 357 97 69 4
318 317 309 308 323 338 344 353 0 31 81 100 48 59 112 97 43 67 84 118 64 118 145 312 358 24 15 49 63 82 306 200 50 30 342 2 4 105 101 120 296 204 285 327 280 222 167
308 306 300 290 301 313 337 350 8 47 104 153 63 53 102 106 73 78 80 101 91 72 133 297 36 2 47 64 107 232 107 251 67 278 132 133 114 248 60 90 234 3 338 178 235 104 169
290 289 282 277 286 293 320 341 357 29 109 164 108 340 126 119 110 106 94 89 84 69 101 69 130 158 144 88 97 116 73 49 124 286 320 25 175 178 154 216 278 2 103 307 244 180 172
Wind_Speed_850mb
29 33 36 37 36 34 34 33 34 34 34 33 33 33 30 28 25 25 24 24 22 20 19 18 18 15 14 10 18 12 4 19 51 53 44 46 42 18 9 10 15 5 13 18 12 13 35
33 36 38 38 35 35 35 34 34 35 35 36 35 33 31 27 26 25 24 22 21 20 18 16 16 16 15 9 9 14 11 15 43 51 46 48 39 36 4 9 14 21 26 20 17 21 40
35 38 39 37 37 39 40 39 38 36 37 38 38 35 31 28 25 24 22 21 19 17 16 14 14 18 23 27 7 18 13 11 24 38 49 51 21 24 2 9 9 30 15 20 19 31 13
35 36 38 37 38 40 42 42 40 39 39 40 43 39 32 27 23 18 15 14 14 10 7 9 12 17 18 3 26 24 20 21 28 31 31 38 39 18 9 12 8 4 12 11 14 33 26
36 36 36 36 37 39 42 44 43 39 39 41 43 38 30 28 22 19 19 17 15 10 4 5 7 11 16 17 34 30 19 16 22 28 24 19 26 13 7 3 9 10 8 9 15 29 9
36 36 35 34 35 38 41 44 45 42 39 39 41 36 28 26 22 19 20 14 12 10 9 8 8 9 5 7 19 29 26 20 17 26 12 13 16 6 5 7 8 6 7 3 7 19 18
36 36 35 34 33 36 39 42 44 43 38 36 35 34 25 24 20 21 23 16 15 5 16 20 17 27 38 14 13 26 30 32 14 19 10 13 7 12 16 10 10 9 3 18 11 16 12
38 35 36 33 32 33 36 40 42 41 38 34 31 28 24 21 23 25 24 22 18 19 23 40 37 42 38 36 11 22 26 23 13 9 9 9 11 16 11 13 9 6 8 12 17 15 14
42 37 35 36 34 32 34 38 40 39 37 34 29 26 23 22 20 15 26 23 26 47 6 19 11 14 5 9 11 21 33 33 8 7 8 11 8 11 8 5 10 5 9 13 16 15 10
47 39 36 35 36 34 33 36 39 38 36 36 31 28 24 26 11 17 12 30 43 28 8 12 6 3 12 10 5 14 27 31 4 16 12 8 12 7 6 7 11 3 15 16 29 19 10
51 44 38 35 36 35 33 34 37 39 37 35 33 29 25 21 23 22 25 36 44 3 9 26 9 9 6 23 13 21 35 28 13 8 13 11 9 11 11 16 13 18 12 27 25 7 9
50 44 39 36 35 35 34 34 36 38 38 37 34 29 21 16 15 14 29 31 9 10 8 14 11 12 10 2 8 24 23 22 9 5 3 13 7 10 16 9 20 4 17 22 10 6 3
48 46 41 36 34 34 34 34 37 41 39 33 37 22 15 9 8 19 27 12 9 9 9 13 10 9 5 4 3 8 9 8 9 7 8 12 10 11 12 7 1 8 14 4 6 1 11
45 45 40 35 33 32 34 35 39 41 37 31 21 12 7 6 11 19 26 10 13 3 3 11 11 10 6 8 6 7 12 7 1 9 4 7 6 13 7 19 15 15 18 11 11 10 6
42 43 38 33 32 31 33 34 40 40 40 27 14 10 14 14 17 16 9 11 10 6 6 10 12 13 13 12 1 8 13 8 9 16 13 6 9 8 9 10 20 8 8 13 13 5 8
37 39 35 30 31 30 32 34 42 39 35 25 16 11 6 9 12 10 11 4 7 9 9 6 7 7 9 11 5 8 8 7 7 2 3 6 4 3 10 9 8 13 12 7 6 9 6
33 36 32 28 29 29 31 34 42 39 31 28 15 9 9 8 7 4 7 10 8 14 15 2 2 8 2 6 7 4 4 3 6 9 12 5 6 11 3 6 13 5 5 12 11 7 10
32 36 29 27 29 29 29 32 41 39 29 32 7 4 7 14 5 4 3 8 4 9 15 9 6 4 4 7 12 8 5 3 14 1 4 3 8 3 7 8 9 3 10 9 10 6 7
35 34 29 25 27 26 26 29 38 39 33 36 7 4 13 20 4 3 5 7 3 14 11 9 9 5 7 6 7 8 7 8 21 8 4 4 7 4 11 12 13 14 9 8 11 7 8
33 31 27 24 25 26 24 28 34 32 31 17 4 5 5 16 9 9 8 8 8 26 16 8 8 7 10 14 13 3 10 11 14 17 6 7 6 7 9 10 4 5 8 6 9 7 11
33 29 26 24 23 24 22 25 32 28 21 12 9 2 2 2 7 9 8 3 8 10 10 29 15 13 3 9 13 12 8 14 14 33 9 8 7 2 4 6 6 1 5 7 7 8 9
31 27 24 21 19 21 20 21 27 31 15 18 8 9 10 8 5 8 9 6 8 7 10 9 8 13 13 9 3 6 8 9 5 14 9 8 3 1 12 12 13 9 17 17 10 12 13
29 25 20 18 17 19 19 18 22 27 19 11 10 8 4 12 7 8 4 2 4 11 11 9 4 5 10 10 20 14 8 8 6 7 9 7 5 6 1 9 9 13 17 12 8 4 42
26 22 17 16 16 18 17 14 16 23 26 25 16 6 5 4 4 4 3 6 8 5 8 4 9 3 9 19 10 5 10 11 15 17 8 6 7 5 2 8 8 9 15 19 22 7 11
25 21 14 12 13 16 15 11 9 10 14 16 22 7 5 4 1 2 8 6 8 5 5 5 7 3 16 8 8 10 10 10 13 14 16 11 7 7 6 4 2 12 15 9 7 13 15
22 18 13 11 11 13 14 11 7 5 7 6 16 11 8 15 6 4 6 3 3 1 10 5 7 5 10 9 7 5 3 2 6 13 10 11 13 8 4 5 8 12 16 10 16 7 6
21 17 12 10 8 9 12 11 8 4 8 11 13 12 10 10 12 10 7 5 4 4 3 7 8 7 12 6 7 4 3 3 2 4 8 8 8 6 2 3 6 6 19 24 10 13 48
20 16 13 11 9 7 9 9 8 4 6 9 5 12 13 15 27 20 17 13 8 7 6 2 5 9 8 8 5 4 4 3 5 3 3 5 6 1 3 6 5 17 12 11 6 5 60
19 16 14 12 9 7 8 8 7 4 7 14 4 5 3 6 10 19 16 13 7 10 5 4 5 4 5 8 1 5 3 4 4 3 6 3 8 8 9 9 13 12 3 4 11 26 54
Wind_Direction_850mb
15 8 6 6 7 8 6 7 5 1 357 350 341 331 325 319 314 310 307 305 299 290 285 276 274 267 262 250 245 183 351 172 177 176 181 177 180 184 182 195 159 214 147 173 141 125 143
15 10 10 10 11 12 9 7 4 3 360 358 351 343 333 323 315 312 311 307 300 292 283 271 261 254 247 252 239 202 138 155 184 187 184 183 193 186 289 239 172 205 172 164 160 163 141
13 12 12 11 12 11 6 4 2 360 360 0 358 350 342 335 329 324 319 311 303 293 281 264 246 241 249 248 212 159 157 184 198 196 191 190 163 189 184 290 264 245 162 166 169 165 126
12 12 12 12 12 9 5 3 359 356 359 1 1 356 351 353 350 347 343 342 335 320 278 243 226 241 250 187 197 183 173 194 200 205 202 207 195 229 252 299 318 211 132 154 176 173 181
10 11 10 11 11 10 7 4 1 358 357 1 1 2 6 7 18 42 40 31 32 30 99 185 208 244 263 224 208 184 208 193 191 199 202 118 193 228 241 127 14 18 162 189 167 195 140
7 6 5 6 6 7 8 6 3 0 358 359 2 6 11 21 32 37 23 11 6 17 117 142 239 298 264 339 200 211 210 192 176 174 171 191 198 151 52 90 187 68 43 133 149 172 102
0 359 359 358 358 3 6 4 4 2 357 356 4 7 5 10 10 354 340 341 344 333 273 246 268 265 296 290 207 199 205 190 167 150 149 184 131 200 193 175 131 102 2 79 69 83 86
356 351 353 349 350 355 358 0 2 3 359 352 355 4 1 352 345 337 338 346 24 341 299 296 271 263 270 274 298 195 195 172 173 161 123 45 213 220 172 167 126 124 101 89 79 128 73
352 348 344 345 345 346 350 355 357 0 359 353 345 344 346 341 323 325 332 15 347 340 269 303 264 244 276 168 198 236 186 192 143 138 136 157 245 171 147 136 128 138 160 176 141 146 143
351 345 340 340 343 341 342 347 351 353 355 352 344 333 336 335 321 308 350 344 338 329 54 296 298 290 194 224 298 209 190 188 159 184 151 223 233 147 164 230 137 204 192 155 151 165 176
352 348 340 338 339 340 338 338 344 346 347 345 344 329 328 333 317 313 324 330 331 109 51 332 302 353 248 168 161 207 195 181 157 156 110 245 181 189 190 214 152 223 154 180 160 96 100
349 343 339 339 336 337 335 333 338 341 339 337 338 325 321 332 319 323 323 320 332 38 25 335 341 352 6 206 157 176 177 183 130 127 104 222 242 173 209 217 181 137 83 60 66 107 323
344 344 341 339 336 334 333 332 335 339 336 337 327 325 317 348 307 323 332 332 41 85 328 323 304 346 50 284 152 127 156 105 141 98 345 330 261 234 174 252 248 129 96 54 56 45 221
340 343 340 337 337 334 334 333 337 342 336 338 318 298 253 236 280 299 334 52 64 248 282 285 284 301 216 157 223 169 118 151 259 108 118 185 304 167 182 185 190 186 154 150 157 187 235
336 342 342 339 337 337 336 336 340 345 340 348 340 286 259 227 256 295 337 56 197 237 281 306 324 34 337 15 28 157 154 183 207 171 171 172 269 293 186 161 145 193 146 184 105 17 101
335 343 341 336 337 339 339 340 343 348 345 346 339 311 274 272 240 304 64 218 228 222 296 6 50 57 348 316 57 79 33 314 321 235 175 228 257 271 277 133 46 155 160 76 14 139 148
335 340 340 334 340 343 344 346 346 351 354 355 336 323 322 316 206 43 119 226 273 286 241 195 23 4 352 334 17 79 358 284 313 330 96 112 145 288 359 47 170 48 71 60 110 106 145
341 342 341 339 348 347 348 348 348 350 5 360 5 26 312 141 27 57 113 208 320 297 49 38 73 31 56 7 13 70 78 186 346 85 61 334 130 201 230 285 265 54 148 127 122 197 78
341 346 347 350 350 346 349 352 353 350 355 351 355 12 198 200 9 294 284 287 330 6 12 23 23 331 53 51 81 28 354 29 18 60 62 19 16 43 3 360 6 50 348 97 106 88 169
346 347 350 352 352 347 350 357 357 353 353 5 64 57 80 224 299 147 114 355 11 19 45 15 6 344 49 17 20 330 25 357 2 20 76 85 69 120 144 220 225 14 328 119 106 110 151
348 347 352 351 354 348 351 0 5 5 17 23 35 98 56 285 344 74 86 69 57 16 33 28 18 18 46 43 6 11 21 0 355 11 28 87 99 55 45 339 154 115 325 183 143 156 143
348 347 352 355 356 351 349 1 14 17 21 32 38 23 13 53 28 70 13 352 68 34 37 351 67 20 46 76 55 348 348 48 13 321 30 355 132 111 354 16 19 35 21 37 46 114 66
345 344 348 357 357 355 353 356 13 31 28 34 39 29 8 10 13 64 280 208 16 118 51 51 284 77 42 358 327 296 273 305 237 336 16 45 80 54 147 319 37 353 356 342 43 291 143
336 337 340 356 351 354 354 351 4 30 42 38 30 43 70 343 93 180 154 99 68 65 127 49 10 34 339 332 324 351 0 11 54 31 30 84 79 30 208 24 64 266 18 75 79 31 130
328 332 335 339 340 353 355 350 349 17 45 38 30 55 67 80 318 317 106 90 93 62 45 48 17 359 336 5 48 34 349 13 3 14 12 44 106 71 108 101 219 350 351 346 24 33 134
324 325 320 321 338 350 350 351 348 10 37 75 35 57 89 116 325 259 96 37 136 22 354 359 43 17 2 68 58 94 151 268 326 342 34 41 62 102 65 104 195 236 269 357 97 69 4
318 317 309 308 323 338 344 353 0 31 81 100 48 59 112 97 43 67 84 118 64 118 145 312 358 24 15 49 63 82 306 200 50 30 342 2 4 105 101 120 296 204 285 327 280 222 167
308 306 300 290 301 313 337 350 8 47 104 153 63 53 102 106 73 78 80 101 91 72 133 297 36 2 47 64 107 232 107 251 67 278 132 133 114 248 60 90 234 3 338 178 235 104 169
290 289 282 277 286 293 320 341 357 29 109 164 108 340 126 119 110 106 94 89 84 69 101 69 130 158 144 88 97 116 73 49 124 286 320 25 175 178 154 216 278 2 103 307 244 180 172